User: anonymous   Login
Location: Clermont
(50.2608°N, 4.3172°E)
Time: 07:52:00
(UTC+00:00)
Language:

Cosmos 1025 Rocket - Orbit

View from above orbital plane
View from above orbital plane
View from above satellite
View from above satellite

Ground track
Ground track

The orbit data is extracted from the following two-line orbital elements,

1 10974U 78067B   20299.89744814 +.00000121 +00000-0 +10719-4 0  9992
2 10974 082.4804 087.2967 0016140 235.1961 124.7738 14.87365268268780
Epoch (UTC): 25 October 2020 21:32:19
Eccentricity: 0.0016140
inclination: 82.4804°
perigee height: 595 km
apogee height: 617 km
right ascension of ascending node: 87.2967°
argument of perigee: 235.1961°
revolutions per day: 14.87365268
mean anomaly at epoch: 124.7738°
orbit number at epoch: 26878

The dashed part of the orbit path shows where the satellite is in the earth's shadow,  

DLR